User: anonymous   Login
Location: Blue Mountain Vista Observatory
(40.6992°N, 75.9422°W)
Time: 13:10:06
(UTC-04:00)
Language:

CZ-4C R/B - Orbit

View from above orbital plane
View from above orbital plane
View from above satellite
View from above satellite

Ground track
Ground track

The orbit data is extracted from the following two-line orbital elements,

1 36416U 10009D   15213.55205818 -.00000060  00000-0  28985-4 0  9999
2 36416 063.4469 301.5010 0319576 358.5803 001.4296 13.69471139270473
Epoch (UTC): 01 August 2015 13:14:57
Eccentricity: 0.0319576
inclination: 63.4469°
perigee height: 765 km
apogee height: 1237 km
right ascension of ascending node: 301.5010°
argument of perigee: 358.5803°
revolutions per day: 13.69471139
mean anomaly at epoch: 1.4296°
orbit number at epoch: 27047

The dashed part of the orbit path shows where the satellite is in the earth's shadow,  

DLR